Location: Campolattaro
(41.2833°N, 14.7333°E)
Time: 23:23:01
(UTC+00:00)

Cosmos 783 Rocket - Pass Details

Date: 19 May 2025
Orbit: 753 x 777 km, 74.1° (Epoch: 22 June)

Event Time Altitude Azimuth Distance (km) Brightness Sun altitude
Exits shadow 21:06:58 62° 122° (ESE) 852 4.4 -23.6°
Maximum altitude 21:07:13 63° 106° (ESE) 845 4.4 -23.6°
Drops below altitude 10° 21:12:21 10° 26° (NNE) 2,296 7.4 -24.1°
Sets 21:14:45 0° 23° (NNE) 3,229 8.3 -24.3°
